Other Public Products
Issued by NWS Grand Forks, ND

Home | Current Version | Previous Version | Graphics & Text | Print | Product List | Glossary On
Versions: 1 2 3 4 5 6 7 8 9 10 11 12 13 14 15 16 17 18 19 20 21 22 23 24 25 26 27 28 29 30 31 32 33 34 35 36 37 38 39 40 41 42 43 44 45 46 47 48 49 50
270
FPUS83 KFGF 091210
OPUFGF
PRAIRIE TO PINES WEATHER ROUNDUP
NATIONAL WEATHER SERVICE EASTERN NORTH DAKOTA/GRAND FORKS ND
600 AM CST TUE FEB 09 2016

 **SATELLITE DATA USED TO AUGMENT SKY COVER AT AUTOMATED STATIONS**
 *****  WEATHER ACROSS EASTERN NORTH DAKOTA  *****

CITY           SKY/WX    TMP DP  RH WIND       PRES   REMARKS
GRAND FORKS    CLOUDY    11   4  73 N13       30.28R WCI  -4
6HR MIN TEMP:   4; 6HR MAX TEMP:  11;

GRAND FORKS AF CLOUDY    10   4  74 N10       30.27R WCI  -3
GRAND CITY NWS NOT AVBL
BUXTON           N/A     10   6  82 N15         N/A  WCI  -7
DEVILS LAKE    CLOUDY    14  10  84 NW3       30.24R
6HR MIN TEMP:   5; 6HR MAX TEMP:  14;

FARGO          CLOUDY     8   2  76 NW10      30.25S WCI  -6
6HR MIN TEMP:   4; 6HR MAX TEMP:   8;

WAHPETON ARPT  SUNNY      3   0  85 NW8       30.24F WCI -10
$$

 *****  WEATHER ACROSS CENTRAL AND WESTERN NORTH DAKOTA  *****

CITY           SKY/WX    TMP DP  RH WIND       PRES   REMARKS
JAMESTOWN      CLOUDY    14   8  77 NW7       30.24R WCI   4
6HR MIN TEMP:   7; 6HR MAX TEMP:  14;

BISMARCK       CLOUDY    25  12  58 W5        30.27R WCI  19
6HR MIN TEMP:  25; 6HR MAX TEMP:  26;

MINOT          CLOUDY    26   9  48 SW9       30.21S WCI  17
6HR MIN TEMP:  25; 6HR MAX TEMP:  26;

MINOT AFB      CLOUDY    23  12  63 CALM      30.20S
6HR MIN TEMP:  22; 6HR MAX TEMP:  23;

GARRISON         N/A     21  14  74 SW5       30.23R WCI  15
6HR MIN TEMP:  21; 6HR MAX TEMP:  23;

WILLISTON      CLOUDY    27  21  78 NE5       30.20R WCI  22
6HR MIN TEMP:  27; 6HR MAX TEMP:  30;

DICKINSON      CLOUDY    23  17  78 S7        30.16F WCI  15
6HR MIN TEMP:  22; 6HR MAX TEMP:  28;

HETTINGER      CLOUDY    27  16  63 S5        30.20S WCI  22
6HR MIN TEMP:  27; 6HR MAX TEMP:  30;

$$

 *****  OTHER OBSERVATIONS NORTHEAST NORTH DAKOTA  *****

CITY           SKY/WX    TMP DP  RH WIND       PRES   REMARKS
WALHALLA       FAIR      10   7  85 N9        30.29R WCI  -2
LANGDON        CLOUDY    10   7  85 NW8       30.23R WCI  -1
CAVALIER       CLOUDY     9   5  85 N10       30.29R WCI  -6
GRAFTON        CLOUDY     9   5  85 N10       30.31R WCI  -6
CANDO          NOT AVBL
FORT TOTTEN    NOT AVBL
ROLLA          CLOUDY    18   9  68 CALM      30.22S
RUGBY          FAIR      18  12  79 SW3       30.22F
 ***** THE ABOVE OBSERVATIONS ARE NON NWS ARE NOT QUALITY
        CONTROLLED AND MAY MIS-REPORT RAIN FOR SNOW...
$$

 *****  OTHER OBSERVATIONS SOUTHEAST NORTH DAKOTA *****

CITY           SKY/WX    TMP DP  RH WIND       PRES   REMARKS
COOPERSTOWN    NOT AVBL
VALLEY CITY    CLOUDY    12   9  85 NW13      30.25R WCI  -3
OAKES          CLOUDY    10   7  85 NW8       30.25S WCI  -1
GWINNER        CLOUDY    12   9  85 NW8       30.25R WCI   1
BUFFALO          N/A     11   4  73 N12         N/A  WCI  -4
WYNDMERE         N/A      5   0  78 NW7         N/A  WCI  -7
 ***** THE ABOVE OBSERVATIONS ARE NON NWS ARE NOT QUALITY
       CONTROLLED AND MAY MIS-REPORT RAIN FOR SNOW...
$$

  *****  WEATHER ACROSS NORTHERN MINNESOTA  *****

CITY           SKY/WX    TMP DP  RH WIND       PRES   REMARKS
FLAG ISLAND    CLOUDY    -6  -9  84 N3        30.19R
WARROAD        LGT SNOW  -2  -6  84 NW7       30.20S WCI -16
ROSEAU         CLOUDY    -6  -9  84 NW5       30.22R WCI -17
HALLOCK        CLOUDY     7   1  78 N12       30.27R WCI  -9
THF RVR FALLS  NOT AVBL
HALSTAD        NOT AVBL
FOSSTON        CLOUDY    -6  -9  84 N7        30.18S WCI -20
BAUDETTE       CLOUDY    -5 -10  79 NW9       30.15S WCI -22
6HR MIN TEMP:  -5; 6HR MAX TEMP:   2;

WASKISH        CLOUDY    -8  -9  92 W5        30.15F WCI -19
CROOKSTON      PTCLDY     7   1  78 N12       30.26S WCI  -9
$$
  *****  WEATHER ACROSS CENTRAL AND WEST MINNESOTA  *****

CITY           SKY/WX    TMP DP  RH WIND       PRES   REMARKS
BEMIDJI        CLOUDY    -4  -7  85 NW7       30.14S WCI -18
PARK RAPIDS    CLEAR      2  -4  76 N14       30.11S WCI -16
6HR MIN TEMP:   2; 6HR MAX TEMP:   6; 6HR PCP: TRACE;

WADENA         CLEAR      1  -4  78 NW10      30.13S WCI -14
DETROIT LAKES  CLOUDY     0  -4  85 NW10      30.17F WCI -17
MOORHEAD       CLEAR      3   0  85 NW6       30.25S WCI  -8
FERGUS FALLS   CLEAR      1  -2  85 N13       30.24S WCI -16
ELBOW LAKE     FAIR       2  -2  82 NW9       30.19S WCI -13
MORRIS MN      CLEAR      3   0  85 NW18      30.17S WCI -17
STAPLES        MOCLDY     1  -4  78 N15       30.12R WCI -18
WHEATON        CLEAR      7   1  78 NW9       30.26R WCI  -7
$$
  *****  WEATHER ELSEWHERE ACROSS MINNESOTA  *****

CITY           SKY/WX    TMP DP  RH WIND       PRES   REMARKS
DULUTH         CLOUDY    -1  -7  75 NW16G23   29.97R WCI -21
6HR MIN TEMP:  -1; 6HR MAX TEMP:   3;

INTRNTL FALLS  CLOUDY    -6 -10  83 NW9       30.12R WCI -23
6HR MIN TEMP:  -6; 6HR MAX TEMP:   2;

ELY            CLOUDY     0  -6  78 NW8G20    30.00R WCI -15
CLOQUET        CLOUDY    -2  -8  78 NW10      30.01S WCI -19
BRAINERD       PTCLDY     1  -5  75 NW13      30.10R WCI -17
6HR MIN TEMP:   1; 6HR MAX TEMP:   6;

HIBBING        CLOUDY    -1  -5  82 N15G23    30.03R WCI -21
6HR MIN TEMP:  -2; 6HR MAX TEMP:   0; 6HR PCP: TRACE;

ALEXANDRIA     CLEAR      2  -3  80 N17       30.13R WCI -18
6HR MIN TEMP:   2; 6HR MAX TEMP:   7;

SAINT CLOUD    CLEAR      4  -3  73 NW13      30.09R WCI -13
6HR MIN TEMP:   4; 6HR MAX TEMP:  10;

MINNEAPOLIS    PTCLDY     6  -2  69 NW17G29   30.06R WCI -13
6HR MIN TEMP:   6; 6HR MAX TEMP:  12; 6HR PCP: TRACE;

$$

  *****  WEATHER ACROSS SOUTH DAKOTA  *****

CITY           SKY/WX    TMP DP  RH WIND       PRES   REMARKS
SIOUX FALLS    CLEAR      7   0  73 N20       30.18R WCI -13
6HR MIN TEMP:   7; 6HR MAX TEMP:  14;

BROOKINGS      CLEAR      4  -2  76 N10       30.18R WCI -11
WATERTOWN      CLEAR      3  -3  76 N14       30.17F WCI -15
6HR MIN TEMP:   3; 6HR MAX TEMP:   9;

HURON          CLOUDY    13   7  77 N16       30.27S WCI  -3
6HR MIN TEMP:  12; 6HR MAX TEMP:  17;

SISSETON         N/A      5   0  79 N13       30.23S WCI -12
ABERDEEN       CLOUDY    11   5  77 NW5       30.27S WCI   3
6HR MIN TEMP:  10; 6HR MAX TEMP:  16;

MITCHELL       CLOUDY    14   8  77 NW13      30.28S WCI   0
PIERRE         CLOUDY    22  11  62 N7        30.27S WCI  13
6HR MIN TEMP:  22; 6HR MAX TEMP:  26;

MOBRIDGE       CLOUDY    23  13  65 NW3       30.23S
RAPID CITY     CLOUDY    22  14  71 W3        30.22S
6HR MIN TEMP:  21; 6HR MAX TEMP:  33;

$$

  *****  SOME WEATHER IN NEARBY STATES *****

CITY           SKY/WX    TMP DP  RH WIND       PRES   REMARKS
GLASGOW MT     CLOUDY    29  24  82 W6        30.24S WCI  23
6HR MIN TEMP:  25; 6HR MAX TEMP:  31;

GREAT FALLS MT CLOUDY    41  29  62 SW16      30.31S
6HR MIN TEMP:  38; 6HR MAX TEMP:  42;

CHEYENNE WY    CLEAR     36  18  48 NW15      30.28R
6HR MIN TEMP:  31; 6HR MAX TEMP:  38;

SCOTTSBLUFF NE CLEAR     30  23  75 NW10      30.26R WCI  21
6HR MIN TEMP:  30; 6HR MAX TEMP:  34;

OMAHA NE       PTCLDY    14   6  70 N17       30.18R WCI  -3
6HR MIN TEMP:  14; 6HR MAX TEMP:  23;

DES MOINES IA  FLURRIES  12   3  67 N20G26    30.06R WCI  -6
6HR MIN TEMP:  12; 6HR MAX TEMP:  15; 6HR PCP: TRACE;

DAVENPORT IA   CLEAR     12   5  73 NW15      29.91R WCI  -4
6HR MIN TEMP:  12; 6HR MAX TEMP:  16; 6HR PCP: TRACE;

CHICAGO IL     FLURRIES  17  11  77 NW17      29.76R WCI   1
6HR MIN TEMP:  17; 6HR MAX TEMP:  21; 6HR PCP:  0.02;

EAU CLAIRE WI  MOCLDY     5  -4  66 NW9       29.98R WCI  -9
6HR MIN TEMP:   5; 6HR MAX TEMP:   9;

LA CROSSE WI   CLOUDY     8   0  69 NW15      29.97R WCI  -9
6HR MIN TEMP:   8; 6HR MAX TEMP:  13;

$$

  *****  SOME NATIONAL WEATHER *****

CITY           SKY/WX    TMP DP  RH WIND       PRES   REMARKS
LA GUARDIA NY  CLOUDY    28  23  81 E10       29.70R WCI  19
6HR MIN TEMP:  27; 6HR MAX TEMP:  28; 6HR PCP: TRACE;

RALEIGH NC     CLOUDY    36  32  85 W5        29.64R
6HR MIN TEMP:  35; 6HR MAX TEMP:  37;                              C1F1C2F2C3F3C4F4C5F5C6F6C7F7C8F8C9F9CaFaCbFbCcFcCdFdCe!



USA.gov is the U.S. government's official web portal to all federal, state and local government web resources and services.